| time (UTC) | temp C | wind direction | speed KPH | gust KPH | rain 1hr cm | rain 24hr cm | rain mn cm | humidity % | barometer mb |
| 20260505184623 | 27 | 247 | 19.3 | 27.4 | 0.00 | 0.00 | 0.00 | 37 | 1010.0 |
| 20260505184120 | 27 | 314 | 12.9 | 27.4 | 0.00 | 0.00 | 0.00 | 39 | 1010.1 |
| 20260505183616 | 26 | 316 | 11.3 | 24.1 | 0.00 | 0.00 | 0.00 | 40 | 1010.1 |
| 20260505183114 | 27 | 316 | 16.1 | 29.0 | 0.00 | 0.00 | 0.00 | 39 | 1010.2 |
| 20260505182610 | 27 | 246 | 4.8 | 20.9 | 0.00 | 0.00 | 0.00 | 40 | 1010.3 |
| 20260505182107 | 27 | 317 | 9.7 | 17.7 | 0.00 | 0.00 | 0.00 | 38 | 1010.4 |
| 20260505181604 | 27 | 327 | 8.0 | 20.9 | 0.00 | 0.00 | 0.00 | 38 | 1010.3 |
| 20260505181101 | 27 | 223 | 14.5 | 20.9 | 0.00 | 0.00 | 0.00 | 39 | 1010.5 |
| 20260505180556 | 26 | 285 | 12.9 | 20.9 | 0.00 | 0.00 | 0.00 | 39 | 1010.5 |
| 20260505180055 | 26 | 251 | 22.5 | 30.6 | 0.00 | 0.00 | 0.00 | 38 | 1010.7 |
| 20260505175550 | 26 | 336 | 8.0 | 30.6 | 0.00 | 0.00 | 0.00 | 38 | 1010.8 |
| 20260505175047 | 27 | 298 | 9.7 | 16.1 | 0.00 | 0.00 | 0.00 | 42 | 1010.6 |
| 20260505174544 | 27 | 197 | 6.4 | 12.9 | 0.00 | 0.00 | 0.00 | 45 | 1010.6 |
| 20260505174040 | 27 | 240 | 8.0 | 17.7 | 0.00 | 0.00 | 0.00 | 44 | 1010.7 |
| 20260505173537 | 25 | 310 | 4.8 | 14.5 | 0.00 | 0.00 | 0.00 | 45 | 1010.9 |
| 20260505173034 | 26 | 178 | 14.5 | 24.1 | 0.00 | 0.00 | 0.00 | 44 | 1010.9 |
| 20260505172532 | 26 | 258 | 6.4 | 14.5 | 0.00 | 0.00 | 0.00 | 44 | 1010.8 |
| 20260505172028 | 26 | 248 | 11.3 | 25.7 | 0.00 | 0.00 | 0.00 | 45 | 1010.8 |
| 20260505171522 | 26 | 328 | 9.7 | 29.0 | 0.00 | 0.00 | 0.00 | 43 | 1011.1 |
| 20260505171020 | 26 | 231 | 17.7 | 25.7 | 0.00 | 0.00 | 0.00 | 45 | 1011.1 |
| 20260505170516 | 26 | 253 | 6.4 | 24.1 | 0.00 | 0.00 | 0.00 | 44 | 1011.1 |
| 20260505170013 | 26 | 248 | 6.4 | 16.1 | 0.00 | 0.00 | 0.00 | 46 | 1011.2 |
| 20260505165508 | 26 | 341 | 9.7 | 35.4 | 0.00 | 0.00 | 0.00 | 46 | 1011.2 |
| 20260505165004 | 26 | 317 | 8.0 | 16.1 | 0.00 | 0.00 | 0.00 | 45 | 1011.3 |
| 20260505164500 | 26 | 246 | 8.0 | 22.5 | 0.00 | 0.00 | 0.00 | 47 | 1011.5 |
| 20260505163959 | 26 | 320 | 11.3 | 27.4 | 0.00 | 0.00 | 0.00 | 46 | 1011.3 |
| 20260505163457 | 26 | 222 | 12.9 | 17.7 | 0.00 | 0.00 | 0.00 | 47 | 1011.6 |
| 20260505162956 | 26 | 275 | 4.8 | 24.1 | 0.00 | 0.00 | 0.00 | 46 | 1011.7 |
| 20260505162451 | 26 | 310 | 9.7 | 17.7 | 0.00 | 0.00 | 0.00 | 46 | 1011.7 |
| 20260505161948 | 25 | 301 | 6.4 | 20.9 | 0.00 | 0.00 | 0.00 | 46 | 1011.6 |
| 20260505161445 | 26 | 295 | 9.7 | 20.9 | 0.00 | 0.00 | 0.00 | 46 | 1011.5 |
| 20260505160942 | 26 | 325 | 8.0 | 17.7 | 0.00 | 0.00 | 0.00 | 47 | 1011.5 |
| 20260505160440 | 25 | 265 | 8.0 | 17.7 | 0.00 | 0.00 | 0.00 | 48 | 1011.7 |
| 20260505152916 | 25 | 260 | 9.7 | 14.5 | 0.00 | 0.00 | 0.00 | 50 | 1011.9 |
| 20260505152413 | 25 | 263 | 9.7 | 17.7 | 0.00 | 0.00 | 0.00 | 51 | 1011.8 |
| 20260505151908 | 25 | 274 | 4.8 | 12.9 | 0.00 | 0.00 | 0.00 | 52 | 1011.9 |
| 20260505151405 | 24 | 256 | 11.3 | 20.9 | 0.00 | 0.00 | 0.00 | 50 | 1011.9 |
| 20260505150901 | 24 | 331 | 8.0 | 12.9 | 0.00 | 0.00 | 0.00 | 50 | 1011.9 |
| 20260505150359 | 24 | 317 | 9.7 | 24.1 | 0.00 | 0.00 | 0.00 | 50 | 1011.9 |
| 20260505140317 | 22 | 234 | 4.8 | 12.9 | 0.00 | 0.00 | 0.00 | 56 | 1012.3 |
| 20260505130241 | 19 | 290 | 4.8 | 12.9 | 0.00 | 0.00 | 0.00 | 64 | 1013.0 |
| 20260505124731 | 19 | 262 | 4.8 | 11.3 | 0.00 | 0.00 | 0.00 | 63 | 1012.7 |
| 20260505124228 | 19 | 327 | 8.0 | 12.9 | 0.00 | 0.00 | 0.00 | 64 | 1012.9 |
| 20260505123723 | 18 | 256 | 4.8 | 9.7 | 0.00 | 0.00 | 0.00 | 64 | 1012.7 |
| 20260505123220 | 18 | 286 | 6.4 | 14.5 | 0.00 | 0.00 | 0.00 | 65 | 1012.7 |
| 20260505122717 | 18 | 322 | 6.4 | 11.3 | 0.00 | 0.00 | 0.00 | 64 | 1012.8 |
| 20260505122214 | 18 | 311 | 6.4 | 17.7 | 0.00 | 0.00 | 0.00 | 65 | 1012.6 |
| 20260505121711 | 18 | 255 | 14.5 | 17.7 | 0.00 | 0.00 | 0.00 | 65 | 1012.5 |
| 20260505121207 | 17 | 0 | 4.8 | 12.9 | 0.00 | 0.00 | 0.00 | 66 | 1012.5 |
| 20260505120704 | 18 | 298 | 8.0 | 11.3 | 0.00 | 0.00 | 0.00 | 66 | 1012.5 |
| 20260505120159 | 18 | 224 | 1.6 | 11.3 | 0.00 | 0.00 | 0.00 | 67 | 1012.3 |
| 20260505115653 | 18 | 237 | 8.0 | 12.9 | 0.00 | 0.00 | 0.00 | 66 | 1012.5 |
| 20260505115151 | 17 | 307 | 6.4 | 11.3 | 0.00 | 0.00 | 0.00 | 68 | 1012.5 |
| 20260505114648 | 17 | 224 | 3.2 | 6.4 | 0.00 | 0.00 | 0.00 | 69 | 1012.4 |
| 20260505114144 | 17 | 292 | 3.2 | 9.7 | 0.00 | 0.00 | 0.00 | 69 | 1012.2 |
| 20260505113641 | 16 | 247 | 3.2 | 11.3 | 0.00 | 0.00 | 0.00 | 70 | 1012.1 |
| 20260505113138 | 16 | 255 | 3.2 | 6.4 | 0.00 | 0.00 | 0.00 | 71 | 1012.5 |
| 20260505112633 | 16 | 297 | 4.8 | 9.7 | 0.00 | 0.00 | 0.00 | 71 | 1012.4 |
| 20260505112132 | 16 | 257 | 4.8 | 6.4 | 0.00 | 0.00 | 0.00 | 71 | 1012.3 |
| 20260505111626 | 16 | 317 | 4.8 | 11.3 | 0.00 | 0.00 | 0.00 | 71 | 1012.4 |
| 20260505111122 | 16 | 350 | 8.0 | 9.7 | 0.00 | 0.00 | 0.00 | 70 | 1012.1 |
| 20260505110618 | 16 | 318 | 4.8 | 9.7 | 0.00 | 0.00 | 0.00 | 72 | 1012.0 |
| 20260505110115 | 15 | 195 | 0.0 | 1.6 | 0.00 | 0.00 | 0.00 | 77 | 1012.2 |
| 20260505102051 | 12 | 136 | 1.6 | 3.2 | 0.00 | 0.00 | 0.00 | 84 | 1011.8 |
| 20260505101550 | 12 | 148 | 0.0 | 0.0 | 0.00 | 0.00 | 0.00 | 84 | 1011.8 |
| 20260505101046 | 12 | 91 | 1.6 | 1.6 | 0.00 | 0.00 | 0.00 | 84 | 1011.8 |
| 20260505100542 | 12 | 105 | 0.0 | 1.6 | 0.00 | 0.00 | 0.00 | 84 | 1011.7 |
| 20260505100039 | 12 | 141 | 0.0 | 1.6 | 0.00 | 0.00 | 0.00 | 83 | 1011.9 |
| 20260505095535 | 12 | 110 | 0.0 | 1.6 | 0.00 | 0.00 | 0.00 | 83 | 1011.6 |
| 20260505095032 | 12 | 84 | 0.0 | 1.6 | 0.00 | 0.00 | 0.00 | 83 | 1011.6 |
| 20260505094528 | 12 | 133 | 1.6 | 3.2 | 0.00 | 0.00 | 0.00 | 82 | 1011.8 |
| 20260505094025 | 12 | 90 | 0.0 | 1.6 | 0.00 | 0.00 | 0.00 | 82 | 1011.5 |
| 20260505093521 | 12 | 73 | 0.0 | 1.6 | 0.00 | 0.00 | 0.00 | 82 | 1011.5 |
| 20260505093019 | 12 | 40 | 1.6 | 3.2 | 0.00 | 0.00 | 0.00 | 83 | 1011.6 |
| 20260505092516 | 13 | 199 | 1.6 | 3.2 | 0.00 | 0.00 | 0.00 | 80 | 1011.7 |
| 20260505092014 | 13 | 71 | 1.6 | 1.6 | 0.00 | 0.00 | 0.00 | 79 | 1011.4 |
| 20260505091511 | 13 | 149 | 0.0 | 3.2 | 0.00 | 0.00 | 0.00 | 78 | 1011.5 |
| 20260505091009 | 13 | 148 | 0.0 | 1.6 | 0.00 | 0.00 | 0.00 | 77 | 1011.6 |
| 20260505090507 | 13 | 42 | 1.6 | 3.2 | 0.00 | 0.00 | 0.00 | 78 | 1011.3 |
| 20260505090004 | 13 | 139 | 1.6 | 3.2 | 0.00 | 0.00 | 0.00 | 78 | 1011.5 |
| 20260505085502 | 13 | 140 | 0.0 | 1.6 | 0.00 | 0.00 | 0.00 | 78 | 1011.5 |
| 20260505085000 | 13 | 106 | 1.6 | 3.2 | 0.00 | 0.00 | 0.00 | 76 | 1011.5 |
| 20260505084458 | 13 | 139 | 3.2 | 3.2 | 0.00 | 0.00 | 0.00 | 76 | 1011.4 |
| 20260505083956 | 13 | 77 | 0.0 | 1.6 | 0.00 | 0.00 | 0.00 | 76 | 1011.5 |
| 20260505083453 | 13 | 152 | 3.2 | 3.2 | 0.00 | 0.00 | 0.00 | 76 | 1011.4 |
| 20260505082949 | 14 | 284 | 0.0 | 0.0 | 0.00 | 0.00 | 0.00 | 75 | 1011.4 |
| 20260505082445 | 15 | 187 | 3.2 | 4.8 | 0.00 | 0.00 | 0.00 | 73 | 1011.4 |
| 20260505081942 | 15 | 62 | 1.6 | 3.2 | 0.00 | 0.00 | 0.00 | 73 | 1011.2 |
| 20260505081439 | 15 | 110 | 1.6 | 1.6 | 0.00 | 0.00 | 0.00 | 73 | 1011.2 |
| 20260505080935 | 15 | 148 | 1.6 | 1.6 | 0.00 | 0.00 | 0.00 | 72 | 1011.3 |
| 20260505080431 | 15 | 143 | 1.6 | 3.2 | 0.00 | 0.00 | 0.00 | 71 | 1011.4 |
| 20260505075927 | 15 | 130 | 3.2 | 3.2 | 0.00 | 0.00 | 0.00 | 71 | 1011.5 |
| 20260505075424 | 15 | 166 | 1.6 | 3.2 | 0.00 | 0.00 | 0.00 | 71 | 1011.3 |
| 20260505074921 | 15 | 203 | 1.6 | 1.6 | 0.00 | 0.00 | 0.00 | 70 | 1011.2 |
| 20260505074419 | 16 | 109 | 0.0 | 3.2 | 0.00 | 0.00 | 0.00 | 68 | 1011.3 |
| 20260505073915 | 16 | 150 | 1.6 | 1.6 | 0.00 | 0.00 | 0.00 | 67 | 1011.1 |
| 20260505073413 | 17 | 92 | 1.6 | 3.2 | 0.00 | 0.00 | 0.00 | 65 | 1011.1 |
| 20260505072910 | 17 | 287 | 1.6 | 3.2 | 0.00 | 0.00 | 0.00 | 63 | 1011.0 |
| 20260505072406 | 18 | 226 | 1.6 | 3.2 | 0.00 | 0.00 | 0.00 | 62 | 1010.8 |
| 20260505071903 | 17 | 281 | 6.4 | 14.5 | 0.00 | 0.00 | 0.00 | 62 | 1011.0 |
| 20260505071359 | 17 | 240 | 3.2 | 9.7 | 0.00 | 0.00 | 0.00 | 63 | 1011.2 |
| 20260505070857 | 17 | 263 | 4.8 | 4.8 | 0.00 | 0.00 | 0.00 | 64 | 1011.2 |
| 20260505070353 | 17 | 276 | 4.8 | 4.8 | 0.00 | 0.00 | 0.00 | 63 | 1011.0 |
| 20260505065849 | 17 | 262 | 8.0 | 11.3 | 0.00 | 0.00 | 0.00 | 61 | 1011.3 |
| 20260505065346 | 17 | 318 | 3.2 | 6.4 | 0.00 | 0.00 | 0.00 | 61 | 1011.1 |
| 20260505064843 | 17 | 262 | 6.4 | 12.9 | 0.00 | 0.00 | 0.00 | 61 | 1011.4 |
| 20260505064340 | 17 | 268 | 4.8 | 12.9 | 0.00 | 0.00 | 0.00 | 61 | 1011.4 |
| 20260505063838 | 17 | 264 | 8.0 | 16.1 | 0.00 | 0.00 | 0.00 | 61 | 1011.5 |
| 20260505063333 | 17 | 231 | 9.7 | 12.9 | 0.00 | 0.00 | 0.00 | 61 | 1011.3 |
| 20260505062830 | 17 | 227 | 6.4 | 9.7 | 0.00 | 0.00 | 0.00 | 60 | 1011.3 |
| 20260505062328 | 18 | 240 | 9.7 | 16.1 | 0.00 | 0.00 | 0.00 | 60 | 1011.5 |
| 20260505061824 | 18 | 282 | 4.8 | 9.7 | 0.00 | 0.00 | 0.00 | 60 | 1011.2 |
| 20260505061323 | 18 | 209 | 8.0 | 12.9 | 0.00 | 0.00 | 0.00 | 59 | 1011.4 |
| 20260505060820 | 18 | 294 | 6.4 | 14.5 | 0.00 | 0.00 | 0.00 | 58 | 1011.3 |
| 20260505060316 | 18 | 236 | 4.8 | 14.5 | 0.00 | 0.00 | 0.00 | 58 | 1011.3 |
| 20260505055812 | 19 | 307 | 8.0 | 24.1 | 0.00 | 0.00 | 0.00 | 56 | 1011.2 |
| 20260505055308 | 18 | 252 | 9.7 | 20.9 | 0.00 | 0.00 | 0.00 | 57 | 1011.3 |
| 20260505054806 | 19 | 240 | 4.8 | 16.1 | 0.00 | 0.00 | 0.00 | 57 | 1011.3 |
| 20260505054303 | 19 | 267 | 9.7 | 16.1 | 0.00 | 0.00 | 0.00 | 57 | 1011.2 |
| 20260505053801 | 18 | 219 | 12.9 | 17.7 | 0.00 | 0.00 | 0.00 | 57 | 1011.1 |
| 20260505053258 | 18 | 232 | 8.0 | 20.9 | 0.00 | 0.00 | 0.00 | 58 | 1010.8 |
| 20260505052755 | 18 | 233 | 9.7 | 17.7 | 0.00 | 0.00 | 0.00 | 58 | 1011.1 |
| 20260505052252 | 18 | 294 | 8.0 | 17.7 | 0.00 | 0.00 | 0.00 | 58 | 1010.9 |
| 20260505051749 | 18 | 236 | 11.3 | 20.9 | 0.00 | 0.00 | 0.00 | 58 | 1011.1 |
| 20260505051247 | 18 | 263 | 9.7 | 20.9 | 0.00 | 0.00 | 0.00 | 57 | 1011.0 |
| 20260505050744 | 18 | 5 | 12.9 | 24.1 | 0.00 | 0.00 | 0.00 | 57 | 1010.9 |
| 20260505050243 | 18 | 225 | 9.7 | 17.7 | 0.00 | 0.00 | 0.00 | 58 | 1011.1 |
| 20260505041712 | 18 | 260 | 9.7 | 20.9 | 0.00 | 0.00 | 0.00 | 56 | 1011.0 |
| 20260505041210 | 18 | 166 | 6.4 | 22.5 | 0.00 | 0.00 | 0.00 | 56 | 1010.9 |
| 20260505040707 | 18 | 216 | 9.7 | 27.4 | 0.00 | 0.00 | 0.00 | 56 | 1010.9 |
| 20260505040204 | 18 | 237 | 8.0 | 20.9 | 0.00 | 0.00 | 0.00 | 57 | 1010.9 |
| 20260505035701 | 18 | 290 | 6.4 | 22.5 | 0.00 | 0.00 | 0.00 | 57 | 1010.9 |
| 20260505035156 | 18 | 239 | 14.5 | 20.9 | 0.00 | 0.00 | 0.00 | 57 | 1011.0 |
| 20260505034653 | 17 | 256 | 11.3 | 17.7 | 0.00 | 0.00 | 0.00 | 57 | 1010.9 |
| 20260505034151 | 18 | 244 | 9.7 | 17.7 | 0.00 | 0.00 | 0.00 | 57 | 1010.9 |
| 20260505033646 | 18 | 264 | 11.3 | 16.1 | 0.00 | 0.00 | 0.00 | 57 | 1010.8 |
| 20260505033145 | 18 | 251 | 8.0 | 16.1 | 0.00 | 0.00 | 0.00 | 57 | 1010.6 |
| 20260505032643 | 17 | 260 | 9.7 | 20.9 | 0.00 | 0.00 | 0.00 | 56 | 1010.6 |
| 20260505032138 | 18 | 247 | 14.5 | 20.9 | 0.00 | 0.00 | 0.00 | 56 | 1010.6 |
| 20260505031636 | 18 | 219 | 11.3 | 16.1 | 0.00 | 0.00 | 0.00 | 56 | 1010.7 |
| 20260505031132 | 18 | 229 | 14.5 | 22.5 | 0.00 | 0.00 | 0.00 | 55 | 1010.4 |
| 20260505030629 | 18 | 197 | 19.3 | 25.7 | 0.00 | 0.00 | 0.00 | 55 | 1010.7 |
| 20260505030125 | 17 | 258 | 12.9 | 22.5 | 0.00 | 0.00 | 0.00 | 57 | 1010.4 |
| 20260505025621 | 17 | 11 | 4.8 | 14.5 | 0.00 | 0.00 | 0.00 | 58 | 1010.6 |
| 20260505025120 | 17 | 233 | 6.4 | 20.9 | 0.00 | 0.00 | 0.00 | 58 | 1010.5 |
| 20260505024617 | 17 | 291 | 14.5 | 20.9 | 0.00 | 0.00 | 0.00 | 56 | 1010.5 |
| 20260505024114 | 18 | 178 | 9.7 | 30.6 | 0.00 | 0.00 | 0.00 | 56 | 1010.5 |
| 20260505023611 | 17 | 282 | 9.7 | 17.7 | 0.00 | 0.00 | 0.00 | 56 | 1010.6 |
| 20260505023109 | 17 | 242 | 8.0 | 25.7 | 0.00 | 0.00 | 0.00 | 56 | 1010.9 |
| 20260505022606 | 17 | 264 | 6.4 | 16.1 | 0.00 | 0.00 | 0.00 | 56 | 1010.8 |
| 20260505022103 | 17 | 259 | 8.0 | 16.1 | 0.00 | 0.00 | 0.00 | 56 | 1010.9 |
| 20260505021559 | 17 | 229 | 9.7 | 17.7 | 0.00 | 0.00 | 0.00 | 55 | 1010.9 |
| 20260505021056 | 17 | 221 | 9.7 | 17.7 | 0.00 | 0.00 | 0.00 | 56 | 1010.6 |
| 20260505020556 | 17 | 214 | 6.4 | 9.7 | 0.00 | 0.00 | 0.00 | 56 | 1010.8 |
| 20260505020053 | 17 | 253 | 6.4 | 12.9 | 0.00 | 0.00 | 0.00 | 55 | 1010.6 |
| 20260505015551 | 17 | 227 | 12.9 | 16.1 | 0.00 | 0.00 | 0.00 | 55 | 1010.8 |
| 20260505015047 | 17 | 225 | 11.3 | 24.1 | 0.00 | 0.00 | 0.00 | 54 | 1010.9 |
| 20260505014544 | 17 | 330 | 11.3 | 24.1 | 0.00 | 0.00 | 0.00 | 54 | 1010.8 |
| 20260505014041 | 17 | 223 | 6.4 | 17.7 | 0.00 | 0.00 | 0.00 | 54 | 1010.8 |
| 20260505013538 | 17 | 147 | 8.0 | 14.5 | 0.00 | 0.00 | 0.00 | 54 | 1010.8 |
| 20260505013036 | 18 | 218 | 3.2 | 12.9 | 0.00 | 0.00 | 0.00 | 54 | 1010.9 |
| 20260505012534 | 18 | 180 | 9.7 | 16.1 | 0.00 | 0.00 | 0.00 | 52 | 1010.9 |
| 20260505012030 | 18 | 255 | 6.4 | 16.1 | 0.00 | 0.00 | 0.00 | 53 | 1010.7 |
| 20260505011526 | 18 | 190 | 9.7 | 17.7 | 0.00 | 0.00 | 0.00 | 52 | 1010.8 |
| 20260505011023 | 18 | 197 | 8.0 | 22.5 | 0.00 | 0.00 | 0.00 | 52 | 1010.6 |
| 20260505010518 | 18 | 139 | 6.4 | 14.5 | 0.00 | 0.00 | 0.00 | 52 | 1010.8 |
| 20260505010015 | 18 | 193 | 8.0 | 22.5 | 0.00 | 0.00 | 0.00 | 51 | 1010.6 |
| 20260505005512 | 18 | 184 | 9.7 | 14.5 | 0.00 | 0.00 | 0.00 | 51 | 1010.7 |
| 20260505005009 | 18 | 217 | 6.4 | 16.1 | 0.00 | 0.00 | 0.00 | 51 | 1010.9 |
| 20260505004506 | 18 | 175 | 9.7 | 17.7 | 0.00 | 0.00 | 0.00 | 51 | 1010.6 |
| 20260505004003 | 18 | 285 | 3.2 | 20.9 | 0.00 | 0.00 | 0.00 | 51 | 1010.4 |
| 20260505003500 | 18 | 250 | 9.7 | 16.1 | 0.00 | 0.00 | 0.00 | 50 | 1010.7 |
| 20260505002956 | 18 | 241 | 8.0 | 11.3 | 0.00 | 0.00 | 0.00 | 50 | 1010.6 |
| 20260505002452 | 18 | 236 | 4.8 | 20.9 | 0.00 | 0.00 | 0.00 | 50 | 1010.6 |
| 20260505001951 | 18 | 321 | 11.3 | 25.7 | 0.00 | 0.00 | 0.00 | 50 | 1010.4 |
| 20260505001448 | 18 | 185 | 4.8 | 16.1 | 0.00 | 0.00 | 0.00 | 51 | 1010.5 |
| 20260505000945 | 18 | 180 | 9.7 | 12.9 | 0.00 | 0.00 | 0.00 | 51 | 1010.6 |
| 20260505000443 | 19 | 196 | 8.0 | 16.1 | 0.00 | 0.00 | 0.00 | 50 | 1010.6 |
| 20260504235940 | 19 | 238 | 9.7 | 14.5 | 0.00 | 0.00 | 0.00 | 50 | 1010.6 |
| 20260504235437 | 19 | 17 | 4.8 | 9.7 | 0.00 | 0.00 | 0.00 | 50 | 1010.7 |
| 20260504234933 | 19 | 224 | 8.0 | 17.7 | 0.00 | 0.00 | 0.00 | 50 | 1010.6 |
| 20260504234431 | 19 | 301 | 9.7 | 14.5 | 0.00 | 0.00 | 0.00 | 49 | 1010.5 |
| 20260504233927 | 20 | 190 | 12.9 | 20.9 | 0.00 | 0.00 | 0.00 | 49 | 1010.3 |
| 20260504233423 | 20 | 215 | 9.7 | 24.1 | 0.00 | 0.00 | 0.00 | 47 | 1010.2 |
| 20260504232920 | 20 | 213 | 17.7 | 27.4 | 0.00 | 0.00 | 0.00 | 47 | 1010.3 |
| 20260504232417 | 20 | 133 | 11.3 | 20.9 | 0.00 | 0.00 | 0.00 | 47 | 1010.4 |
| 20260504231914 | 20 | 239 | 6.4 | 17.7 | 0.00 | 0.00 | 0.00 | 48 | 1010.4 |
| 20260504231410 | 20 | 136 | 6.4 | 20.9 | 0.00 | 0.00 | 0.00 | 48 | 1010.5 |
| 20260504230907 | 20 | 237 | 9.7 | 22.5 | 0.00 | 0.00 | 0.00 | 47 | 1010.2 |
| 20260504230404 | 21 | 204 | 12.9 | 17.7 | 0.00 | 0.00 | 0.00 | 46 | 1010.1 |
| 20260504225903 | 21 | 235 | 6.4 | 12.9 | 0.00 | 0.00 | 0.00 | 47 | 1010.1 |
| 20260504225359 | 21 | 261 | 9.7 | 17.7 | 0.00 | 0.00 | 0.00 | 46 | 1010.2 |
| 20260504224857 | 21 | 187 | 6.4 | 16.1 | 0.00 | 0.00 | 0.00 | 46 | 1010.2 |
| 20260504224353 | 22 | 234 | 14.5 | 17.7 | 0.00 | 0.00 | 0.00 | 43 | 1010.4 |
| 20260504223850 | 22 | 279 | 8.0 | 20.9 | 0.00 | 0.00 | 0.00 | 43 | 1010.3 |
| 20260504223345 | 22 | 266 | 12.9 | 24.1 | 0.00 | 0.00 | 0.00 | 42 | 1010.2 |
| 20260504222842 | 22 | 290 | 8.0 | 12.9 | 0.00 | 0.00 | 0.00 | 42 | 1010.3 |
| 20260504222339 | 22 | 271 | 6.4 | 12.9 | 0.00 | 0.00 | 0.00 | 42 | 1010.1 |
| 20260504221837 | 22 | 281 | 12.9 | 17.7 | 0.00 | 0.00 | 0.00 | 41 | 1010.2 |
| 20260504221334 | 22 | 324 | 6.4 | 16.1 | 0.00 | 0.00 | 0.00 | 42 | 1010.3 |
| 20260504220831 | 22 | 262 | 3.2 | 11.3 | 0.00 | 0.00 | 0.00 | 44 | 1010.3 |
| 20260504220327 | 22 | 197 | 11.3 | 24.1 | 0.00 | 0.00 | 0.00 | 41 | 1010.2 |
| 20260504215825 | 22 | 329 | 6.4 | 9.7 | 0.00 | 0.00 | 0.00 | 42 | 1010.0 |
| 20260504215321 | 22 | 267 | 8.0 | 12.9 | 0.00 | 0.00 | 0.00 | 41 | 1010.2 |
| 20260504214817 | 22 | 225 | 4.8 | 17.7 | 0.00 | 0.00 | 0.00 | 41 | 1010.3 |
| 20260504214314 | 22 | 267 | 14.5 | 20.9 | 0.00 | 0.00 | 0.00 | 41 | 1010.5 |
| 20260504213811 | 23 | 255 | 8.0 | 14.5 | 0.00 | 0.00 | 0.00 | 40 | 1010.4 |
| 20260504213307 | 22 | 327 | 6.4 | 20.9 | 0.00 | 0.00 | 0.00 | 41 | 1010.3 |
| 20260504212804 | 22 | 301 | 6.4 | 11.3 | 0.00 | 0.00 | 0.00 | 42 | 1010.4 |
| 20260504212300 | 22 | 236 | 9.7 | 20.9 | 0.00 | 0.00 | 0.00 | 41 | 1010.4 |
| 20260504211758 | 22 | 326 | 4.8 | 12.9 | 0.00 | 0.00 | 0.00 | 41 | 1010.5 |
| 20260504211248 | 23 | 279 | 8.0 | 14.5 | 0.00 | 0.00 | 0.00 | 41 | 1010.5 |
| 20260504210746 | 22 | 324 | 14.5 | 17.7 | 0.00 | 0.00 | 0.00 | 41 | 1010.3 |
| 20260504210243 | 22 | 228 | 4.8 | 11.3 | 0.00 | 0.00 | 0.00 | 43 | 1010.6 |
| 20260504205740 | 23 | 303 | 11.3 | 16.1 | 0.00 | 0.00 | 0.00 | 41 | 1010.6 |
| 20260504205238 | 23 | 314 | 4.8 | 12.9 | 0.00 | 0.00 | 0.00 | 43 | 1010.6 |
| 20260504204736 | 23 | 232 | 6.4 | 12.9 | 0.00 | 0.00 | 0.00 | 42 | 1010.6 |
| 20260504204234 | 23 | 150 | 4.8 | 17.7 | 0.00 | 0.00 | 0.00 | 43 | 1010.7 |
| 20260504203733 | 23 | 297 | 3.2 | 12.9 | 0.00 | 0.00 | 0.00 | 41 | 1010.5 |
| 20260504203230 | 23 | 294 | 9.7 | 12.9 | 0.00 | 0.00 | 0.00 | 43 | 1010.5 |
| 20260504202730 | 23 | 296 | 8.0 | 14.5 | 0.00 | 0.00 | 0.00 | 42 | 1010.6 |
| 20260504202227 | 22 | 320 | 6.4 | 14.5 | 0.00 | 0.00 | 0.00 | 42 | 1010.8 |
| 20260504201724 | 23 | 257 | 6.4 | 14.5 | 0.00 | 0.00 | 0.00 | 41 | 1010.6 |
| 20260504201221 | 22 | 334 | 8.0 | 14.5 | 0.00 | 0.00 | 0.00 | 40 | 1010.9 |
| 20260504200719 | 22 | 317 | 9.7 | 12.9 | 0.00 | 0.00 | 0.00 | 41 | 1010.9 |
| 20260504200215 | 22 | 294 | 9.7 | 17.7 | 0.00 | 0.00 | 0.00 | 42 | 1011.2 |
| 20260504195711 | 22 | 268 | 8.0 | 16.1 | 0.00 | 0.00 | 0.00 | 44 | 1011.2 |
| 20260504195207 | 22 | 197 | 12.9 | 20.9 | 0.00 | 0.00 | 0.00 | 43 | 1011.3 |
| 20260504194704 | 21 | 252 | 8.0 | 16.1 | 0.00 | 0.00 | 0.00 | 43 | 1011.4 |
| 20260504194201 | 22 | 265 | 8.0 | 27.4 | 0.00 | 0.00 | 0.00 | 43 | 1011.3 |
| 20260504193657 | 22 | 243 | 17.7 | 22.5 | 0.00 | 0.00 | 0.00 | 43 | 1011.2 |
| 20260504193155 | 22 | 264 | 9.7 | 14.5 | 0.00 | 0.00 | 0.00 | 42 | 1011.4 |
| 20260504192653 | 22 | 266 | 9.7 | 20.9 | 0.00 | 0.00 | 0.00 | 43 | 1011.4 |
| 20260504192150 | 22 | 259 | 9.7 | 24.1 | 0.00 | 0.00 | 0.00 | 43 | 1011.6 |
| 20260504191649 | 22 | 299 | 6.4 | 22.5 | 0.00 | 0.00 | 0.00 | 44 | 1011.5 |
| 20260504191144 | 22 | 348 | 6.4 | 24.1 | 0.00 | 0.00 | 0.00 | 43 | 1011.8 |
| 20260504190641 | 22 | 330 | 8.0 | 16.1 | 0.00 | 0.00 | 0.00 | 42 | 1011.7 |
| 20260504190138 | 21 | 248 | 9.7 | 25.7 | 0.00 | 0.00 | 0.00 | 44 | 1011.7 |
| 20260504185634 | 22 | 245 | 11.3 | 20.9 | 0.00 | 0.00 | 0.00 | 44 | 1012.0 |
| 20260504185131 | 22 | 228 | 8.0 | 14.5 | 0.00 | 0.00 | 0.00 | 41 | 1012.0 |